Location: Grandview
(34.8900°N, 117.1058°W)
Time: 14:32:30
(UTC-07:00)

Vanguard 2 Rocket - Visible Passes

Search period start: 21 October 2017 00:00
Search period end: 31 October 2017 00:00
Orbit: 555 x 3327 km, 32.9° (Epoch: 20 October)

Date Brightness Start Highest point End Pass type
(mag) Time Alt. Az. Time Alt. Az. Time Alt. Az.
21 Oct 10.2 18:31:19 10° W 18:42:05 38° SSW 18:58:07 10° SSE visible
21 Oct 11.1 20:51:07 10° WSW 20:58:41 14° SW 21:07:15 10° SSW visible
22 Oct 10.8 19:48:07 10° WSW 19:57:36 21° SW 20:09:34 10° S visible
23 Oct 10.6 18:47:03 10° W 18:56:40 27° SSW 19:10:05 10° SSE visible
24 Oct 11.1 20:07:55 10° SW 20:12:18 12° SW 20:17:06 10° SSW visible
25 Oct 10.9 19:04:07 10° WSW 19:11:22 17° SSW 19:20:28 10° S visible
28 Oct 11.0 18:21:14 10° SW 18:25:31 12° SSW 18:30:33 10° S visible
